BAW654 EGLL-LGSA

Flight info

Callsign BAW654
Flight time 3h 29m
Altitude 35000
Route DET L6 DVR UL9 KONAN DCT KOK DCT SISGA DCT KOMOB M150 PITES DCT EDISA DCT KUNOD DCT GEDSO DCT VEKEN DCT NERRA DCT KOFER DCT DIMIS DCT IPTES UL604 PLH
Aircraft A321/M-SDE3FGHIRWY/LB1

Departure

Time 2026-05-08 08:41
Airport London Heathrow Airport (EGLL)

Arrival

Time 2026-05-08 12:11
Airport Chania International Airport (LGSA)
Time Latitude Longitude Altitude Speed Heading
2026-05-08 08:01 51.46927 -0.48715 90 ft 0 kts 359°
2026-05-08 08:35 51.46906 -0.48712 89 ft 4 kts 339°
2026-05-08 08:35 51.46885 -0.48690 88 ft 4 kts 301°
2026-05-08 08:35 51.46877 -0.48656 86 ft 1 kts 270°
2026-05-08 08:36 51.46877 -0.48655 86 ft 0 kts 270°
2026-05-08 08:38 51.46877 -0.48663 86 ft 2 kts 270°
2026-05-08 08:39 51.46875 -0.48717 89 ft 6 kts 253°
2026-05-08 08:39 51.46836 -0.48749 87 ft 7 kts 184°
2026-05-08 08:39 51.46782 -0.48749 86 ft 9 kts 180°
2026-05-08 08:39 51.46715 -0.48749 86 ft 11 kts 180°
2026-05-08 08:40 51.46632 -0.48753 86 ft 13 kts 191°
2026-05-08 08:40 51.46542 -0.48788 86 ft 14 kts 177°
2026-05-08 08:40 51.46479 -0.48688 86 ft 15 kts 97°
2026-05-08 08:40 51.46479 -0.48396 87 ft 53 kts 89°
2026-05-08 08:41 51.46483 -0.47432 86 ft 119 kts 90°
2026-05-08 08:41 51.46487 -0.45835 91 ft 169 kts 90°
2026-05-08 08:41 51.46483 -0.43872 512 ft 180 kts 88°
2026-05-08 08:41 51.46478 -0.41837 1171 ft 185 kts 88°
2026-05-08 08:42 51.46447 -0.39785 1810 ft 183 kts 90°
2026-05-08 08:42 51.46413 -0.38424 2177 ft 186 kts 90°
2026-05-08 08:42 51.46206 -0.36351 2736 ft 193 kts 107°
2026-05-08 08:42 51.45509 -0.34467 3290 ft 200 kts 130°
2026-05-08 08:43 51.44416 -0.33028 3786 ft 209 kts 142°
2026-05-08 08:43 51.43166 -0.30623 4302 ft 218 kts 112°
2026-05-08 08:43 51.42847 -0.29055 4574 ft 222 kts 98°
2026-05-08 08:43 51.42544 -0.26547 4894 ft 239 kts 99°
2026-05-08 08:44 51.42175 -0.23879 5242 ft 256 kts 101°
2026-05-08 08:44 51.41734 -0.21004 5703 ft 267 kts 102°
2026-05-08 08:44 51.41260 -0.18088 5997 ft 273 kts 103°
2026-05-08 08:44 51.40769 -0.15192 6072 ft 273 kts 104°
2026-05-08 08:45 51.40269 -0.12264 6101 ft 273 kts 102°
2026-05-08 08:45 51.39840 -0.09310 6049 ft 272 kts 100°
2026-05-08 08:45 51.39453 -0.06348 6003 ft 271 kts 100°
2026-05-08 08:45 51.39062 -0.03391 6012 ft 272 kts 100°
2026-05-08 08:46 51.38659 -0.00436 6035 ft 272 kts 101°
2026-05-08 08:46 51.38245 0.02517 6060 ft 272 kts 101°
2026-05-08 08:46 51.37822 0.05478 6039 ft 272 kts 101°
2026-05-08 08:46 51.37426 0.08438 5963 ft 271 kts 99°
2026-05-08 08:47 51.37082 0.11404 5930 ft 271 kts 98°
2026-05-08 08:47 51.36736 0.14375 5926 ft 271 kts 99°
2026-05-08 08:47 51.36373 0.17333 5925 ft 271 kts 99°
2026-05-08 08:47 51.35989 0.20289 5922 ft 271 kts 100°
2026-05-08 08:48 51.35590 0.23236 5924 ft 271 kts 101°
2026-05-08 08:48 51.35182 0.26188 5925 ft 272 kts 101°
2026-05-08 08:48 51.34768 0.29135 5925 ft 272 kts 101°
2026-05-08 08:48 51.34351 0.32083 5924 ft 271 kts 101°
2026-05-08 08:49 51.33930 0.35028 5920 ft 271 kts 101°
2026-05-08 08:49 51.33506 0.37968 5923 ft 271 kts 101°
2026-05-08 08:49 51.33085 0.40905 5925 ft 271 kts 101°
2026-05-08 08:49 51.32663 0.43849 5923 ft 271 kts 101°
2026-05-08 08:50 51.32240 0.46791 5924 ft 272 kts 101°
2026-05-08 08:50 51.31819 0.49734 5925 ft 272 kts 101°
2026-05-08 08:50 51.31398 0.52675 5923 ft 272 kts 101°
2026-05-08 08:50 51.30973 0.55619 5926 ft 272 kts 101°
2026-05-08 08:51 51.30549 0.58563 5924 ft 272 kts 101°
2026-05-08 08:51 51.30094 0.61523 6498 ft 275 kts 103°
2026-05-08 08:51 51.29576 0.64468 7242 ft 277 kts 104°
2026-05-08 08:51 51.29028 0.67430 7935 ft 279 kts 105°
2026-05-08 08:52 51.28467 0.70416 8596 ft 282 kts 105°
2026-05-08 08:52 51.27903 0.73437 9248 ft 285 kts 104°
2026-05-08 08:52 51.27341 0.76481 9898 ft 288 kts 104°
2026-05-08 08:52 51.26771 0.79593 10301 ft 301 kts 104°
2026-05-08 08:53 51.26162 0.82923 10443 ft 322 kts 104°
2026-05-08 08:53 51.25508 0.86461 10565 ft 342 kts 105°
2026-05-08 08:53 51.24814 0.90194 10698 ft 360 kts 105°
2026-05-08 08:53 51.24100 0.94047 10922 ft 373 kts 105°
2026-05-08 08:54 51.23361 0.98043 11384 ft 378 kts 105°
2026-05-08 08:54 51.22596 1.02146 11906 ft 381 kts 105°
2026-05-08 08:54 51.21848 1.06150 12417 ft 384 kts 105°
2026-05-08 08:54 51.21084 1.10256 12949 ft 387 kts 105°
2026-05-08 08:55 51.20317 1.14376 13459 ft 390 kts 105°
2026-05-08 08:55 51.19536 1.18536 13965 ft 393 kts 105°
2026-05-08 08:55 51.18749 1.22719 14459 ft 395 kts 105°
2026-05-08 08:55 51.17952 1.26935 14926 ft 398 kts 105°
2026-05-08 08:56 51.17148 1.31173 15384 ft 401 kts 105°
2026-05-08 08:56 51.16408 1.35458 15823 ft 403 kts 100°
2026-05-08 08:56 51.16059 1.39892 16265 ft 404 kts 92°
2026-05-08 08:56 51.15857 1.44366 16696 ft 407 kts 93°
2026-05-08 08:57 51.15648 1.48873 17113 ft 409 kts 93°
2026-05-08 08:57 51.15433 1.53400 17514 ft 411 kts 93°
2026-05-08 08:57 51.15211 1.57950 17907 ft 414 kts 93°
2026-05-08 08:57 51.14982 1.62540 18304 ft 416 kts 93°
2026-05-08 08:58 51.14751 1.67145 18689 ft 418 kts 93°
2026-05-08 08:58 51.14519 1.71774 19074 ft 421 kts 93°
2026-05-08 08:58 51.14286 1.76433 19451 ft 423 kts 93°
2026-05-08 08:58 51.14050 1.81114 19824 ft 425 kts 93°
2026-05-08 08:59 51.13809 1.85821 20195 ft 428 kts 94°
2026-05-08 08:59 51.13565 1.90487 20562 ft 430 kts 94°
2026-05-08 08:59 51.13313 1.95251 20904 ft 432 kts 94°
2026-05-08 08:59 51.13062 2.00031 21249 ft 435 kts 94°
2026-05-08 09:00 51.12814 2.04837 21588 ft 437 kts 94°
2026-05-08 09:00 51.12562 2.09671 21915 ft 439 kts 94°
2026-05-08 09:00 51.12301 2.14514 22238 ft 441 kts 94°
2026-05-08 09:00 51.12037 2.19394 22557 ft 443 kts 94°
2026-05-08 09:01 51.11773 2.24288 22867 ft 445 kts 94°
2026-05-08 09:01 51.11506 2.29210 23180 ft 447 kts 94°
2026-05-08 09:01 51.11237 2.34156 23484 ft 449 kts 94°
2026-05-08 09:01 51.10963 2.39107 23783 ft 451 kts 94°
2026-05-08 09:02 51.10683 2.44036 24075 ft 453 kts 94°
2026-05-08 09:02 51.10398 2.49035 24365 ft 455 kts 94°
2026-05-08 09:02 51.10114 2.54062 24648 ft 457 kts 94°
2026-05-08 09:02 51.09825 2.59099 24919 ft 459 kts 95°
2026-05-08 09:03 51.09249 2.64099 25170 ft 462 kts 104°
2026-05-08 09:03 51.08176 2.68942 25409 ft 465 kts 113°
2026-05-08 09:03 51.06702 2.73529 25631 ft 467 kts 117°
2026-05-08 09:03 51.05168 2.78110 25868 ft 469 kts 117°
2026-05-08 09:04 51.03641 2.82697 26085 ft 470 kts 117°
2026-05-08 09:04 51.02112 2.87299 26293 ft 472 kts 116°
2026-05-08 09:04 51.00582 2.91905 26487 ft 473 kts 116°
2026-05-08 09:04 50.99046 2.96525 26733 ft 473 kts 117°
2026-05-08 09:05 50.97512 3.01137 27014 ft 472 kts 117°
2026-05-08 09:05 50.95977 3.05732 27276 ft 471 kts 117°
2026-05-08 09:05 50.94438 3.10319 27538 ft 471 kts 117°
2026-05-08 09:05 50.92898 3.14897 27794 ft 470 kts 117°
2026-05-08 09:06 50.91379 3.19399 28044 ft 470 kts 117°
2026-05-08 09:06 50.89838 3.23960 28301 ft 469 kts 117°
2026-05-08 09:06 50.88299 3.28512 28549 ft 469 kts 117°
2026-05-08 09:06 50.86758 3.33064 28798 ft 468 kts 117°
2026-05-08 09:07 50.85217 3.37603 29033 ft 468 kts 117°
2026-05-08 09:07 50.83677 3.42134 29280 ft 467 kts 117°
2026-05-08 09:07 50.82140 3.46651 29522 ft 467 kts 117°
2026-05-08 09:07 50.80599 3.51167 29768 ft 466 kts 117°
2026-05-08 09:08 50.79061 3.55680 30020 ft 466 kts 117°
2026-05-08 09:08 50.77524 3.60176 30241 ft 465 kts 117°
2026-05-08 09:08 50.75981 3.64673 30479 ft 465 kts 117°
2026-05-08 09:08 50.74436 3.69167 30699 ft 465 kts 117°
2026-05-08 09:09 50.72894 3.73645 30922 ft 464 kts 117°
2026-05-08 09:09 50.71351 3.78117 31137 ft 464 kts 117°
2026-05-08 09:09 50.69807 3.82585 31365 ft 463 kts 117°
2026-05-08 09:09 50.68267 3.87036 31586 ft 463 kts 117°
2026-05-08 09:10 50.66724 3.91490 31800 ft 462 kts 117°
2026-05-08 09:10 50.65180 3.95938 32007 ft 462 kts 117°
2026-05-08 09:10 50.63635 4.00373 32219 ft 462 kts 117°
2026-05-08 09:10 50.62086 4.04803 32426 ft 461 kts 117°
2026-05-08 09:11 50.60559 4.09167 32631 ft 461 kts 117°
2026-05-08 09:11 50.59008 4.13586 32828 ft 460 kts 118°
2026-05-08 09:11 50.57457 4.17993 33021 ft 460 kts 118°
2026-05-08 09:11 50.55906 4.22393 33220 ft 460 kts 118°
2026-05-08 09:12 50.54352 4.26791 33406 ft 459 kts 118°
2026-05-08 09:12 50.52800 4.31173 33598 ft 459 kts 118°
2026-05-08 09:12 50.51247 4.35548 33783 ft 459 kts 118°
2026-05-08 09:12 50.49693 4.39918 33972 ft 458 kts 118°
2026-05-08 09:13 50.48138 4.44286 34145 ft 458 kts 118°
2026-05-08 09:13 50.46583 4.48647 34329 ft 457 kts 118°
2026-05-08 09:13 50.45029 4.53001 34499 ft 457 kts 118°
2026-05-08 09:13 50.43471 4.57353 34670 ft 457 kts 118°
2026-05-08 09:14 50.41917 4.61689 34841 ft 456 kts 118°
2026-05-08 09:14 50.40362 4.66020 34999 ft 457 kts 118°
2026-05-08 09:14 50.37234 4.74713 35027 ft 457 kts 118°
2026-05-08 09:15 50.34107 4.83385 35026 ft 457 kts 118°
2026-05-08 09:15 50.30977 4.92047 35026 ft 457 kts 118°
2026-05-08 09:16 50.27834 5.00691 35026 ft 457 kts 118°
2026-05-08 09:16 50.24679 5.09330 35029 ft 458 kts 118°
2026-05-08 09:17 50.21515 5.17963 35035 ft 458 kts 118°
2026-05-08 09:17 50.18349 5.26593 35039 ft 458 kts 118°
2026-05-08 09:18 50.15175 5.35223 35041 ft 459 kts 118°
2026-05-08 09:18 50.12011 5.43788 35043 ft 459 kts 119°
2026-05-08 09:19 50.08805 5.52454 35046 ft 459 kts 119°
2026-05-08 09:19 50.05628 5.61013 35047 ft 459 kts 119°
2026-05-08 09:20 50.02425 5.69600 35046 ft 459 kts 119°
2026-05-08 09:20 49.99220 5.78193 35047 ft 459 kts 119°
2026-05-08 09:21 49.96006 5.86766 35047 ft 459 kts 119°
2026-05-08 09:23 49.84759 6.16671 35048 ft 459 kts 117°
2026-05-08 09:23 49.81784 6.25417 35048 ft 459 kts 116°
2026-05-08 09:24 49.78892 6.34211 35047 ft 458 kts 116°
2026-05-08 09:24 49.75946 6.42965 35045 ft 459 kts 117°
2026-05-08 09:25 49.72960 6.51616 35046 ft 459 kts 117°
2026-05-08 09:25 49.69719 6.60183 35048 ft 459 kts 121°
2026-05-08 09:26 49.66308 6.68459 35046 ft 459 kts 122°
2026-05-08 09:26 49.62873 6.76769 35048 ft 459 kts 121°
2026-05-08 09:27 49.59489 6.85125 35048 ft 459 kts 121°
2026-05-08 09:27 49.56118 6.93500 35047 ft 459 kts 121°
2026-05-08 09:28 49.52747 7.01850 35047 ft 459 kts 121°
2026-05-08 09:28 49.49350 7.10187 35047 ft 459 kts 121°
2026-05-08 09:29 49.45950 7.18491 35047 ft 459 kts 121°
2026-05-08 09:29 49.42539 7.26799 35045 ft 459 kts 121°
2026-05-08 09:30 49.39150 7.35039 35045 ft 459 kts 121°
2026-05-08 09:30 49.35742 7.43312 35046 ft 459 kts 121°
2026-05-08 09:31 49.32317 7.51585 35044 ft 459 kts 121°
2026-05-08 09:31 49.28893 7.59836 35045 ft 459 kts 121°
2026-05-08 09:32 49.25462 7.68087 35045 ft 459 kts 121°
2026-05-08 09:32 49.22604 7.74927 35044 ft 459 kts 121°
2026-05-08 09:33 49.19154 7.83155 35043 ft 459 kts 121°
2026-05-08 09:33 49.15149 7.92690 35043 ft 459 kts 121°
2026-05-08 09:34 49.12258 7.99551 35041 ft 459 kts 122°
2026-05-08 09:34 49.08801 8.07746 35041 ft 459 kts 122°
2026-05-08 09:35 49.05346 8.15914 35042 ft 459 kts 122°
2026-05-08 09:35 49.01873 8.24072 35042 ft 459 kts 122°
2026-05-08 09:36 48.98377 8.32200 35041 ft 459 kts 123°
2026-05-08 09:36 48.94660 8.40092 35042 ft 459 kts 126°
2026-05-08 09:37 48.90811 8.47779 35041 ft 459 kts 126°
2026-05-08 09:37 48.86950 8.55507 35042 ft 459 kts 126°
2026-05-08 09:38 48.83134 8.63301 35041 ft 459 kts 125°
2026-05-08 09:38 48.79332 8.71088 35042 ft 459 kts 125°
2026-05-08 09:39 48.75509 8.78860 35042 ft 459 kts 126°
2026-05-08 09:39 48.71671 8.86603 35043 ft 460 kts 126°
2026-05-08 09:40 48.67853 8.94292 35043 ft 460 kts 126°
2026-05-08 09:40 48.64011 9.02025 35044 ft 460 kts 126°
2026-05-08 09:41 48.60161 9.09743 35045 ft 460 kts 126°
2026-05-08 09:41 48.56310 9.17446 35044 ft 460 kts 126°
2026-05-08 09:42 48.52447 9.25143 35044 ft 460 kts 126°
2026-05-08 09:42 48.48582 9.32814 35046 ft 460 kts 126°
2026-05-08 09:43 48.44704 9.40497 35044 ft 460 kts 126°
2026-05-08 09:43 48.40829 9.48159 35045 ft 460 kts 126°
2026-05-08 09:44 48.36949 9.55815 35045 ft 460 kts 126°
2026-05-08 09:44 48.33052 9.63455 35046 ft 460 kts 127°
2026-05-08 09:45 48.29062 9.70960 35048 ft 460 kts 128°
2026-05-08 09:45 48.25003 9.78401 35048 ft 461 kts 128°
2026-05-08 09:46 48.20952 9.85853 35047 ft 460 kts 128°
2026-05-08 09:46 48.16924 9.93299 35045 ft 460 kts 128°
2026-05-08 09:47 48.12892 10.00746 35047 ft 460 kts 128°
2026-05-08 09:47 48.08848 10.08183 35047 ft 460 kts 128°
2026-05-08 09:48 48.04819 10.15552 35047 ft 461 kts 128°
2026-05-08 09:48 48.00762 10.22955 35049 ft 461 kts 128°
2026-05-08 09:49 47.96697 10.30356 35049 ft 461 kts 128°
2026-05-08 09:49 47.92630 10.37746 35048 ft 461 kts 128°
2026-05-08 09:50 47.88562 10.45121 35049 ft 460 kts 128°
2026-05-08 09:50 47.84485 10.52495 35047 ft 460 kts 128°
2026-05-08 09:51 47.80408 10.59843 35046 ft 461 kts 128°
2026-05-08 09:51 47.76328 10.67179 35049 ft 461 kts 128°
2026-05-08 09:52 47.72233 10.74516 35049 ft 461 kts 128°
2026-05-08 09:52 47.68139 10.81826 35048 ft 461 kts 128°
2026-05-08 09:53 47.64066 10.89094 35049 ft 461 kts 129°
2026-05-08 09:53 47.59965 10.96386 35049 ft 461 kts 129°
2026-05-08 09:54 47.55854 11.03674 35049 ft 461 kts 129°
2026-05-08 09:54 47.51741 11.10941 35046 ft 461 kts 129°
2026-05-08 09:55 47.47624 11.18196 35048 ft 460 kts 129°
2026-05-08 09:55 47.43503 11.25451 35048 ft 460 kts 129°
2026-05-08 09:56 47.39404 11.32649 35046 ft 460 kts 129°
2026-05-08 09:56 47.35280 11.39873 35045 ft 460 kts 129°
2026-05-08 09:57 47.29075 11.50678 35046 ft 460 kts 129°
2026-05-08 09:57 47.24929 11.57869 35047 ft 461 kts 129°
2026-05-08 09:58 47.20795 11.65027 35048 ft 460 kts 129°
2026-05-08 09:58 47.16650 11.72198 35046 ft 460 kts 129°
2026-05-08 09:59 47.12490 11.79360 35046 ft 461 kts 129°
2026-05-08 09:59 47.08424 11.86618 35045 ft 459 kts 123°
2026-05-08 10:00 47.05423 11.94862 35045 ft 458 kts 115°
2026-05-08 10:00 47.02636 12.03251 35045 ft 458 kts 115°
2026-05-08 10:01 46.99827 12.11643 35047 ft 459 kts 115°
2026-05-08 10:01 46.96999 12.20019 35048 ft 459 kts 115°
2026-05-08 10:02 46.94168 12.28383 35048 ft 459 kts 115°
2026-05-08 10:02 46.91352 12.36700 35048 ft 459 kts 115°
2026-05-08 10:03 46.88521 12.45072 35051 ft 459 kts 115°
2026-05-08 10:03 46.85669 12.53425 35052 ft 459 kts 115°
2026-05-08 10:04 46.82801 12.61785 35052 ft 459 kts 115°
2026-05-08 10:04 46.79944 12.70122 35048 ft 459 kts 115°
2026-05-08 10:05 46.77088 12.78459 35051 ft 459 kts 115°
2026-05-08 10:05 46.74215 12.86784 35049 ft 459 kts 115°
2026-05-08 10:06 46.71355 12.95025 35051 ft 459 kts 116°
2026-05-08 10:06 46.68479 13.03324 35048 ft 459 kts 116°
2026-05-08 10:07 46.65587 13.11610 35048 ft 459 kts 116°
2026-05-08 10:07 46.62685 13.19885 35048 ft 459 kts 116°
2026-05-08 10:08 46.59781 13.28155 35048 ft 458 kts 116°
2026-05-08 10:08 46.56701 13.36254 35044 ft 459 kts 124°
2026-05-08 10:09 46.52300 13.42967 35046 ft 461 kts 139°
2026-05-08 10:09 46.47404 13.48992 35047 ft 462 kts 139°
2026-05-08 10:10 46.42509 13.55011 35048 ft 462 kts 139°
2026-05-08 10:10 46.37639 13.60998 35049 ft 462 kts 139°
2026-05-08 10:11 46.32740 13.67019 35048 ft 462 kts 139°
2026-05-08 10:11 46.27835 13.73019 35046 ft 462 kts 139°
2026-05-08 10:12 46.22933 13.79021 35047 ft 462 kts 139°
2026-05-08 10:12 46.18026 13.85020 35046 ft 462 kts 139°
2026-05-08 10:13 46.13114 13.90988 35046 ft 462 kts 139°
2026-05-08 10:13 46.08198 13.96937 35047 ft 462 kts 139°
2026-05-08 10:14 46.03266 14.02887 35046 ft 462 kts 139°
2026-05-08 10:14 45.98337 14.08829 35046 ft 462 kts 139°
2026-05-08 10:15 45.93415 14.14758 35046 ft 462 kts 139°
2026-05-08 10:15 45.88512 14.20636 35044 ft 462 kts 139°
2026-05-08 10:16 45.83548 14.26587 35046 ft 462 kts 139°
2026-05-08 10:16 45.78645 14.32451 35047 ft 462 kts 139°
2026-05-08 10:17 45.73708 14.38339 35046 ft 462 kts 139°
2026-05-08 10:17 45.68765 14.44216 35046 ft 462 kts 139°
2026-05-08 10:18 45.63815 14.50080 35046 ft 462 kts 139°
2026-05-08 10:18 45.58871 14.55928 35046 ft 462 kts 139°
2026-05-08 10:19 45.53918 14.61770 35044 ft 462 kts 139°
2026-05-08 10:20 45.46483 14.70519 35045 ft 462 kts 139°
2026-05-08 10:20 45.41527 14.76339 35045 ft 462 kts 139°
2026-05-08 10:21 45.36570 14.82154 35045 ft 462 kts 139°
2026-05-08 10:21 45.31601 14.87948 35045 ft 462 kts 140°
2026-05-08 10:22 45.26633 14.93730 35045 ft 462 kts 140°
2026-05-08 10:22 45.22515 14.98557 35044 ft 462 kts 139°
2026-05-08 10:23 45.17630 15.04478 35044 ft 462 kts 138°
2026-05-08 10:23 45.12773 15.10435 35044 ft 462 kts 138°
2026-05-08 10:24 45.07904 15.16377 35042 ft 462 kts 138°
2026-05-08 10:24 45.03046 15.22236 35046 ft 462 kts 139°
2026-05-08 10:25 44.98145 15.28121 35045 ft 462 kts 139°
2026-05-08 10:25 44.93251 15.34006 35045 ft 462 kts 139°
2026-05-08 10:26 44.88352 15.39877 35044 ft 462 kts 139°
2026-05-08 10:26 44.83458 15.45747 35046 ft 462 kts 139°
2026-05-08 10:27 44.78556 15.51598 35046 ft 462 kts 139°
2026-05-08 10:27 44.73646 15.57442 35046 ft 462 kts 139°
2026-05-08 10:28 44.68764 15.63239 35046 ft 462 kts 139°
2026-05-08 10:28 44.63857 15.69063 35045 ft 462 kts 139°
2026-05-08 10:29 44.58936 15.74875 35047 ft 462 kts 139°
2026-05-08 10:29 44.54014 15.80681 35048 ft 462 kts 139°
2026-05-08 10:30 44.49089 15.86478 35048 ft 462 kts 139°
2026-05-08 10:30 44.44161 15.92269 35048 ft 462 kts 139°
2026-05-08 10:31 44.39234 15.98048 35047 ft 462 kts 139°
2026-05-08 10:31 44.34293 16.03827 35049 ft 463 kts 139°
2026-05-08 10:32 44.29360 16.09585 35048 ft 463 kts 139°
2026-05-08 10:32 44.24449 16.15297 35050 ft 463 kts 139°
2026-05-08 10:33 44.19502 16.21042 35050 ft 463 kts 139°
2026-05-08 10:33 44.14556 16.26778 35046 ft 462 kts 139°
2026-05-08 10:34 44.09598 16.32498 35047 ft 462 kts 139°
2026-05-08 10:34 44.04646 16.38206 35048 ft 462 kts 139°
2026-05-08 10:35 43.99693 16.43911 35048 ft 462 kts 139°
2026-05-08 10:35 43.94765 16.49571 35048 ft 463 kts 139°
2026-05-08 10:36 43.89808 16.55263 35047 ft 463 kts 139°
2026-05-08 10:36 43.84842 16.60941 35049 ft 463 kts 139°
2026-05-08 10:37 43.79875 16.66606 35048 ft 463 kts 139°
2026-05-08 10:37 43.74904 16.72259 35049 ft 463 kts 140°
2026-05-08 10:38 43.69925 16.77909 35049 ft 463 kts 140°
2026-05-08 10:38 43.64950 16.83555 35050 ft 463 kts 140°
2026-05-08 10:39 43.59972 16.89188 35049 ft 463 kts 140°
2026-05-08 10:39 43.54982 16.94813 35048 ft 463 kts 140°
2026-05-08 10:40 43.49997 17.00424 35048 ft 463 kts 140°
2026-05-08 10:40 43.45008 17.06033 35050 ft 463 kts 140°
2026-05-08 10:41 43.40010 17.11631 35050 ft 463 kts 140°
2026-05-08 10:41 43.35046 17.17175 35049 ft 463 kts 140°
2026-05-08 10:42 43.30052 17.22755 35049 ft 463 kts 140°
2026-05-08 10:42 43.25053 17.28322 35048 ft 463 kts 140°
2026-05-08 10:43 43.20054 17.33882 35049 ft 462 kts 140°
2026-05-08 10:43 43.15053 17.39424 35049 ft 462 kts 140°
2026-05-08 10:44 43.10037 17.44961 35049 ft 463 kts 140°
2026-05-08 10:44 43.05024 17.50494 35049 ft 463 kts 140°
2026-05-08 10:45 43.00018 17.56009 35046 ft 462 kts 140°
2026-05-08 10:45 42.95009 17.61522 35046 ft 462 kts 140°
2026-05-08 10:46 42.89997 17.67017 35048 ft 462 kts 140°
2026-05-08 10:46 42.84974 17.72513 35046 ft 462 kts 140°
2026-05-08 10:47 42.79981 17.77963 35046 ft 462 kts 140°
2026-05-08 10:47 42.74967 17.83433 35045 ft 462 kts 140°
2026-05-08 10:48 42.69939 17.88911 35046 ft 462 kts 140°
2026-05-08 10:48 42.64918 17.94367 35046 ft 462 kts 140°
2026-05-08 10:49 42.59885 17.99813 35048 ft 463 kts 140°
2026-05-08 10:49 42.54842 18.05238 35049 ft 463 kts 140°
2026-05-08 10:50 42.49794 18.10680 35050 ft 463 kts 140°
2026-05-08 10:50 42.44746 18.16111 35052 ft 463 kts 140°
2026-05-08 10:51 42.39691 18.21536 35053 ft 463 kts 140°
2026-05-08 10:51 42.34670 18.26919 35052 ft 463 kts 141°
2026-05-08 10:52 42.29581 18.32364 35052 ft 463 kts 141°
2026-05-08 10:52 42.24564 18.37713 35048 ft 463 kts 141°
2026-05-08 10:53 42.19507 18.43091 35050 ft 463 kts 141°
2026-05-08 10:53 42.14447 18.48474 35049 ft 463 kts 141°
2026-05-08 10:54 42.09388 18.53852 35050 ft 463 kts 141°
2026-05-08 10:54 42.04324 18.59200 35050 ft 463 kts 141°
2026-05-08 10:55 41.99261 18.64540 35048 ft 463 kts 141°
2026-05-08 10:55 41.94191 18.69877 35049 ft 463 kts 141°
2026-05-08 10:56 41.89113 18.75211 35047 ft 463 kts 141°
2026-05-08 10:56 41.84041 18.80532 35050 ft 463 kts 141°
2026-05-08 10:57 41.78999 18.85816 35050 ft 463 kts 141°
2026-05-08 10:57 41.71368 18.93767 35049 ft 463 kts 141°
2026-05-08 10:58 41.66289 18.99071 35050 ft 463 kts 141°
2026-05-08 10:58 41.61211 19.04362 35051 ft 463 kts 141°
2026-05-08 10:59 41.56116 19.09643 35051 ft 463 kts 141°
2026-05-08 10:59 41.51024 19.14908 35052 ft 463 kts 141°
2026-05-08 11:00 41.45920 19.20187 35052 ft 464 kts 141°
2026-05-08 11:00 41.40815 19.25446 35053 ft 464 kts 141°
2026-05-08 11:01 41.35711 19.30699 35053 ft 464 kts 141°
2026-05-08 11:01 41.30635 19.35911 35053 ft 464 kts 141°
2026-05-08 11:02 41.22973 19.43765 35053 ft 464 kts 141°
2026-05-08 11:03 41.17858 19.48986 35054 ft 464 kts 141°
2026-05-08 11:03 41.12735 19.54209 35053 ft 464 kts 141°
2026-05-08 11:04 41.07620 19.59410 35049 ft 463 kts 141°
2026-05-08 11:04 41.02497 19.64605 35051 ft 463 kts 141°
2026-05-08 11:05 40.97380 19.69796 35051 ft 463 kts 141°
2026-05-08 11:05 40.92261 19.74989 35051 ft 463 kts 141°
2026-05-08 11:06 40.87175 19.80127 35048 ft 463 kts 142°
2026-05-08 11:06 40.82047 19.85284 35049 ft 463 kts 142°
2026-05-08 11:07 40.76922 19.90437 35047 ft 463 kts 142°
2026-05-08 11:07 40.71792 19.95580 35049 ft 463 kts 142°
2026-05-08 11:08 40.66663 20.00708 35048 ft 463 kts 142°
2026-05-08 11:08 40.61522 20.05830 35048 ft 463 kts 142°
2026-05-08 11:09 40.56417 20.10902 35046 ft 462 kts 142°
2026-05-08 11:09 40.51290 20.15991 35045 ft 462 kts 142°
2026-05-08 11:10 40.46151 20.21098 35044 ft 463 kts 142°
2026-05-08 11:10 40.41027 20.26206 35047 ft 463 kts 142°
2026-05-08 11:11 40.35896 20.31312 35047 ft 463 kts 142°
2026-05-08 11:11 40.31617 20.35537 35047 ft 462 kts 142°
2026-05-08 11:12 40.26473 20.40600 35045 ft 462 kts 142°
2026-05-08 11:12 40.21354 20.45640 35045 ft 462 kts 142°
2026-05-08 11:13 40.16191 20.50724 35044 ft 462 kts 142°
2026-05-08 11:13 40.11066 20.55739 35043 ft 463 kts 142°
2026-05-08 11:14 40.05751 20.60477 35045 ft 463 kts 152°
2026-05-08 11:14 40.00017 20.64327 35047 ft 464 kts 152°
2026-05-08 11:15 39.94284 20.68170 35046 ft 464 kts 152°
2026-05-08 11:15 39.88545 20.72003 35045 ft 463 kts 152°
2026-05-08 11:16 39.82799 20.75835 35044 ft 464 kts 152°
2026-05-08 11:16 39.77059 20.79659 35046 ft 464 kts 152°
2026-05-08 11:17 39.71310 20.83473 35044 ft 464 kts 152°
2026-05-08 11:17 39.65555 20.87271 35047 ft 464 kts 152°
2026-05-08 11:18 39.59807 20.91083 35047 ft 464 kts 152°
2026-05-08 11:18 39.54050 20.94859 35045 ft 464 kts 152°
2026-05-08 11:19 39.48284 20.98637 35045 ft 464 kts 152°
2026-05-08 11:19 39.42567 21.02398 35044 ft 464 kts 152°
2026-05-08 11:20 39.36804 21.06189 35047 ft 464 kts 152°
2026-05-08 11:20 39.31052 21.09965 35047 ft 464 kts 152°
2026-05-08 11:21 39.25300 21.13755 35047 ft 464 kts 152°
2026-05-08 11:21 39.19556 21.17531 35044 ft 464 kts 152°
2026-05-08 11:22 39.13791 21.21291 35045 ft 464 kts 152°
2026-05-08 11:22 39.08021 21.25037 35047 ft 464 kts 152°
2026-05-08 11:23 39.02263 21.28780 35046 ft 464 kts 152°
2026-05-08 11:23 38.96491 21.32520 35047 ft 464 kts 152°
2026-05-08 11:24 38.90724 21.36250 35048 ft 464 kts 152°
2026-05-08 11:24 38.84996 21.39950 35049 ft 464 kts 152°
2026-05-08 11:25 38.79224 21.43680 35050 ft 464 kts 152°
2026-05-08 11:25 38.73460 21.47394 34934 ft 463 kts 152°
2026-05-08 11:25 38.70575 21.49243 34699 ft 463 kts 152°
2026-05-08 11:26 38.67703 21.51107 34480 ft 463 kts 152°
2026-05-08 11:26 38.64838 21.52997 34255 ft 463 kts 152°
2026-05-08 11:26 38.61978 21.54907 34018 ft 463 kts 151°
2026-05-08 11:26 38.59129 21.56817 33804 ft 464 kts 151°
2026-05-08 11:27 38.56259 21.58737 33578 ft 464 kts 152°
2026-05-08 11:27 38.53390 21.60645 33356 ft 465 kts 152°
2026-05-08 11:27 38.50520 21.62545 33130 ft 465 kts 152°
2026-05-08 11:27 38.47643 21.64445 32910 ft 466 kts 152°
2026-05-08 11:28 38.44758 21.66345 32680 ft 466 kts 152°
2026-05-08 11:28 38.41874 21.68240 32455 ft 467 kts 152°
2026-05-08 11:28 38.39029 21.70110 32234 ft 467 kts 152°
2026-05-08 11:28 38.36138 21.72010 32009 ft 467 kts 152°
2026-05-08 11:29 38.33242 21.73915 31788 ft 468 kts 152°
2026-05-08 11:29 38.30348 21.75819 31556 ft 468 kts 152°
2026-05-08 11:29 38.27451 21.77719 31335 ft 469 kts 152°
2026-05-08 11:29 38.24544 21.79623 31110 ft 469 kts 152°
2026-05-08 11:30 38.21640 21.81521 30871 ft 470 kts 152°
2026-05-08 11:30 38.18731 21.83421 30659 ft 470 kts 152°
2026-05-08 11:30 38.15815 21.85326 30433 ft 471 kts 152°
2026-05-08 11:30 38.12900 21.87231 30208 ft 471 kts 152°
2026-05-08 11:31 38.09984 21.89135 29981 ft 472 kts 152°
2026-05-08 11:31 38.07068 21.91036 29761 ft 472 kts 152°
2026-05-08 11:31 38.04148 21.92937 29531 ft 473 kts 152°
2026-05-08 11:31 38.01257 21.94814 29306 ft 473 kts 152°
2026-05-08 11:32 37.98325 21.96717 29083 ft 473 kts 152°
2026-05-08 11:32 37.95390 21.98621 28857 ft 474 kts 152°
2026-05-08 11:32 37.92457 22.00523 28631 ft 474 kts 152°
2026-05-08 11:32 37.89517 22.02429 28405 ft 475 kts 152°
2026-05-08 11:33 37.86578 22.04335 28180 ft 475 kts 152°
2026-05-08 11:33 37.83633 22.06245 27957 ft 476 kts 152°
2026-05-08 11:33 37.80679 22.08158 27722 ft 476 kts 152°
2026-05-08 11:33 37.77734 22.10061 27504 ft 476 kts 152°
2026-05-08 11:34 37.74778 22.11971 27276 ft 477 kts 152°
2026-05-08 11:34 37.71822 22.13878 27052 ft 477 kts 152°
2026-05-08 11:34 37.68862 22.15781 26827 ft 478 kts 152°
2026-05-08 11:34 37.65892 22.17688 26612 ft 478 kts 152°
2026-05-08 11:35 37.62925 22.19591 26373 ft 479 kts 152°
2026-05-08 11:35 37.59959 22.21495 26150 ft 479 kts 152°
2026-05-08 11:35 37.57021 22.23382 25926 ft 480 kts 152°
2026-05-08 11:35 37.54008 22.25316 25697 ft 480 kts 152°
2026-05-08 11:36 37.51065 22.27204 25474 ft 481 kts 152°
2026-05-08 11:36 37.48084 22.29112 25248 ft 481 kts 152°
2026-05-08 11:36 37.45098 22.31020 25024 ft 481 kts 152°
2026-05-08 11:36 37.42099 22.32925 24803 ft 482 kts 152°
2026-05-08 11:37 37.39101 22.34820 24569 ft 482 kts 152°
2026-05-08 11:37 37.36100 22.36717 24351 ft 482 kts 152°
2026-05-08 11:37 37.33169 22.38751 24121 ft 480 kts 144°
2026-05-08 11:37 37.30625 22.41438 23899 ft 477 kts 136°
2026-05-08 11:38 37.28219 22.44299 23674 ft 476 kts 135°
2026-05-08 11:38 37.25863 22.47141 23460 ft 474 kts 135°
2026-05-08 11:38 37.23500 22.50018 23225 ft 473 kts 135°
2026-05-08 11:38 37.21146 22.52895 23001 ft 471 kts 135°
2026-05-08 11:39 37.18802 22.55762 22775 ft 470 kts 135°
2026-05-08 11:39 37.16462 22.58611 22549 ft 468 kts 135°
2026-05-08 11:39 37.14126 22.61433 22324 ft 467 kts 135°
2026-05-08 11:39 37.11784 22.64252 22098 ft 465 kts 135°
2026-05-08 11:40 37.09452 22.67053 21873 ft 464 kts 135°
2026-05-08 11:40 37.07130 22.69840 21649 ft 462 kts 135°
2026-05-08 11:40 37.04815 22.72622 21414 ft 461 kts 135°
2026-05-08 11:40 37.02506 22.75398 21197 ft 459 kts 135°
2026-05-08 11:41 37.00207 22.78157 20971 ft 458 kts 135°
2026-05-08 11:41 36.97914 22.80907 20745 ft 456 kts 135°
2026-05-08 11:41 36.95622 22.83648 20519 ft 455 kts 135°
2026-05-08 11:41 36.93337 22.86372 20304 ft 453 kts 135°
2026-05-08 11:42 36.91056 22.89093 20067 ft 452 kts 135°
2026-05-08 11:42 36.88791 22.91797 19843 ft 450 kts 135°
2026-05-08 11:42 36.86536 22.94491 19622 ft 449 kts 135°
2026-05-08 11:42 36.84281 22.97181 19387 ft 447 kts 135°
2026-05-08 11:43 36.82036 22.99854 19168 ft 446 kts 135°
2026-05-08 11:43 36.79790 23.02527 18942 ft 444 kts 135°
2026-05-08 11:43 36.77553 23.05187 18718 ft 443 kts 135°
2026-05-08 11:43 36.75325 23.07832 18491 ft 442 kts 135°
2026-05-08 11:44 36.73134 23.10434 18263 ft 440 kts 135°
2026-05-08 11:44 36.70920 23.13060 18043 ft 439 kts 135°
2026-05-08 11:44 36.68711 23.15679 17819 ft 437 kts 135°
2026-05-08 11:44 36.66513 23.18284 17593 ft 436 kts 135°
2026-05-08 11:45 36.64318 23.20882 17367 ft 435 kts 135°
2026-05-08 11:45 36.62127 23.23472 17151 ft 433 kts 135°
2026-05-08 11:45 36.59941 23.26051 16916 ft 432 kts 135°
2026-05-08 11:45 36.57765 23.28617 16691 ft 430 kts 135°
2026-05-08 11:46 36.55595 23.31177 16467 ft 429 kts 135°
2026-05-08 11:46 36.53431 23.33728 16233 ft 428 kts 135°
2026-05-08 11:46 36.51275 23.36269 16015 ft 426 kts 135°
2026-05-08 11:46 36.49125 23.38798 15790 ft 425 kts 135°
2026-05-08 11:47 36.46982 23.41317 15549 ft 424 kts 135°
2026-05-08 11:47 36.44842 23.43830 15343 ft 422 kts 135°
2026-05-08 11:47 36.42713 23.46328 15110 ft 421 kts 135°
2026-05-08 11:47 36.40584 23.48822 14888 ft 420 kts 135°
2026-05-08 11:48 36.38466 23.51301 14664 ft 418 kts 135°
2026-05-08 11:48 36.36350 23.53777 14433 ft 417 kts 135°
2026-05-08 11:48 36.34238 23.56245 14182 ft 416 kts 135°
2026-05-08 11:48 36.32173 23.58654 13933 ft 407 kts 135°
2026-05-08 11:49 36.30159 23.61001 13695 ft 388 kts 135°
2026-05-08 11:49 36.28235 23.63244 13493 ft 370 kts 135°
2026-05-08 11:49 36.26404 23.65380 13290 ft 354 kts 135°
2026-05-08 11:49 36.24646 23.67430 13085 ft 340 kts 135°
2026-05-08 11:50 36.22956 23.69400 12895 ft 327 kts 135°
2026-05-08 11:50 36.21331 23.71294 12694 ft 315 kts 135°
2026-05-08 11:50 36.19762 23.73121 12492 ft 306 kts 135°
2026-05-08 11:50 36.18217 23.74919 12290 ft 304 kts 135°
2026-05-08 11:51 36.16677 23.76712 12091 ft 302 kts 135°
2026-05-08 11:51 36.15147 23.78492 11895 ft 302 kts 135°
2026-05-08 11:51 36.13618 23.80266 11688 ft 301 kts 135°
2026-05-08 11:51 36.12095 23.82032 11497 ft 300 kts 135°
2026-05-08 11:52 36.10578 23.83791 11289 ft 299 kts 135°
2026-05-08 11:52 36.09061 23.85548 11089 ft 298 kts 135°
2026-05-08 11:52 36.07550 23.87297 10889 ft 297 kts 135°
2026-05-08 11:52 36.06062 23.89019 10691 ft 296 kts 135°
2026-05-08 11:53 36.04561 23.90757 10490 ft 295 kts 135°
2026-05-08 11:53 36.03064 23.92489 10284 ft 294 kts 135°
2026-05-08 11:53 36.01574 23.94213 10090 ft 294 kts 135°
2026-05-08 11:53 36.00085 23.95934 9878 ft 290 kts 135°
2026-05-08 11:54 35.98637 23.97603 9705 ft 280 kts 135°
2026-05-08 11:54 35.97235 23.99220 9532 ft 271 kts 135°
2026-05-08 11:54 35.95882 24.00783 9350 ft 263 kts 135°
2026-05-08 11:54 35.94562 24.02307 9177 ft 257 kts 135°
2026-05-08 11:55 35.93262 24.03807 9002 ft 255 kts 135°
2026-05-08 11:55 35.91965 24.05300 8819 ft 255 kts 135°
2026-05-08 11:55 35.90668 24.06788 8664 ft 253 kts 135°
2026-05-08 11:55 35.89378 24.08270 8502 ft 253 kts 135°
2026-05-08 11:56 35.88094 24.09749 8332 ft 253 kts 135°
2026-05-08 11:56 35.86811 24.11225 8152 ft 252 kts 135°
2026-05-08 11:56 35.85524 24.12689 7977 ft 251 kts 136°
2026-05-08 11:56 35.84232 24.14126 7800 ft 247 kts 136°
2026-05-08 11:57 35.82981 24.15510 7618 ft 236 kts 136°
2026-05-08 11:57 35.81780 24.16832 7441 ft 229 kts 136°
2026-05-08 11:57 35.80597 24.18135 7264 ft 227 kts 136°
2026-05-08 11:57 35.79423 24.19426 7102 ft 226 kts 136°
2026-05-08 11:58 35.78250 24.20717 6941 ft 226 kts 136°
2026-05-08 11:58 35.77081 24.22002 6766 ft 225 kts 136°
2026-05-08 11:58 35.75915 24.23285 6592 ft 225 kts 136°
2026-05-08 11:59 35.73590 24.25839 6240 ft 223 kts 136°
2026-05-08 11:59 35.72431 24.27112 6064 ft 223 kts 136°
2026-05-08 11:59 35.71275 24.28380 5893 ft 222 kts 136°
2026-05-08 11:59 35.70122 24.29645 5714 ft 222 kts 136°
2026-05-08 12:00 35.68971 24.30907 5541 ft 221 kts 136°
2026-05-08 12:00 35.67824 24.32165 5363 ft 221 kts 136°
2026-05-08 12:00 35.66678 24.33422 5189 ft 220 kts 136°
2026-05-08 12:00 35.65921 24.34252 5073 ft 220 kts 136°
2026-05-08 12:01 35.64412 24.35905 4841 ft 219 kts 136°
2026-05-08 12:01 35.63275 24.37151 4665 ft 218 kts 136°
2026-05-08 12:01 35.62142 24.38391 4491 ft 218 kts 136°
2026-05-08 12:01 35.61010 24.39630 4315 ft 217 kts 136°
2026-05-08 12:02 35.59882 24.40864 4144 ft 217 kts 136°
2026-05-08 12:02 35.59120 24.41698 4021 ft 216 kts 136°
2026-05-08 12:02 35.58011 24.42910 3846 ft 216 kts 136°
2026-05-08 12:02 35.56876 24.44149 3671 ft 215 kts 136°
2026-05-08 12:03 35.55757 24.45371 3504 ft 215 kts 136°
2026-05-08 12:03 35.54641 24.46589 3320 ft 214 kts 136°
2026-05-08 12:03 35.53543 24.47784 3147 ft 214 kts 137°
2026-05-08 12:03 35.52220 24.48587 2956 ft 217 kts 170°
2026-05-08 12:04 35.50720 24.48423 2873 ft 216 kts 192°
2026-05-08 12:04 35.49286 24.47973 2866 ft 210 kts 195°
2026-05-08 12:04 35.47880 24.47504 2868 ft 209 kts 195°
2026-05-08 12:04 35.46536 24.46860 2868 ft 208 kts 211°
2026-05-08 12:05 35.45447 24.45716 2871 ft 206 kts 232°
2026-05-08 12:05 35.44748 24.44203 2885 ft 204 kts 252°
2026-05-08 12:05 35.44507 24.42508 2873 ft 201 kts 272°
2026-05-08 12:05 35.44731 24.40830 2871 ft 198 kts 291°
2026-05-08 12:06 35.45239 24.39268 2872 ft 198 kts 295°
2026-05-08 12:06 35.45746 24.37721 2870 ft 192 kts 295°
2026-05-08 12:06 35.46241 24.36211 2871 ft 189 kts 295°
2026-05-08 12:06 35.46720 24.34748 2632 ft 182 kts 295°
2026-05-08 12:07 35.47193 24.33306 2296 ft 181 kts 295°
2026-05-08 12:07 35.47669 24.31854 2270 ft 184 kts 295°
2026-05-08 12:07 35.48149 24.30391 2271 ft 185 kts 295°
2026-05-08 12:07 35.48630 24.28923 2271 ft 185 kts 295°
2026-05-08 12:08 35.49110 24.27457 2271 ft 185 kts 295°
2026-05-08 12:08 35.49585 24.25999 2090 ft 186 kts 294°
2026-05-08 12:08 35.50062 24.24533 1842 ft 184 kts 295°
2026-05-08 12:08 35.50533 24.23085 1599 ft 179 kts 295°
2026-05-08 12:09 35.50971 24.21740 1365 ft 161 kts 295°
2026-05-08 12:09 35.51372 24.20507 1159 ft 151 kts 295°
2026-05-08 12:09 35.51759 24.19325 961 ft 148 kts 295°
2026-05-08 12:09 35.52137 24.18159 791 ft 147 kts 294°
2026-05-08 12:10 35.52509 24.16993 567 ft 146 kts 294°
2026-05-08 12:10 35.52878 24.15878 471 ft 130 kts 293°
2026-05-08 12:10 35.53113 24.15151 462 ft 59 kts 291°
2026-05-08 12:10 35.53263 24.14698 453 ft 55 kts 292°
2026-05-08 12:11 35.53382 24.14333 447 ft 26 kts 291°
2026-05-08 12:11 35.53443 24.14264 447 ft 12 kts 19°
2026-05-08 12:11 35.53528 24.14304 447 ft 14 kts 20°
2026-05-08 12:11 35.53627 24.14352 431 ft 15 kts 22°
2026-05-08 12:12 35.53700 24.14304 437 ft 15 kts 290°
2026-05-08 12:12 35.53743 24.14169 433 ft 19 kts 292°
2026-05-08 12:12 35.53796 24.14010 426 ft 20 kts 291°
2026-05-08 12:12 35.53828 24.13912 433 ft 9 kts 291°
2026-05-08 12:13 35.53863 24.13850 434 ft 9 kts 342°
2026-05-08 12:13 35.53930 24.13873 437 ft 10 kts 24°
2026-05-08 12:13 35.53937 24.13877 437 ft 0 kts 24°